[TLELIST] Archives

 

[list_settings.list_name] Current TLEs

April 2nd 2010 PST

HST 1 20580U 90037B 10091.18172083 .00000637 00000-0 36013-4 0 5433 2 20580 028.4703 022.5589 0003556 105.1589 254.9414 15.00936079893177 ISS (ZARYA) 1 25544U 98067A 10 91.47935872 .00024034 00000-0 16365-3 0 8857 2 25544 051.6428 264.4002 0006153 127.8185 232.3899 15.74141067651399 CXO 1 25867U 99040B 10089.70833333 .00000157 00000-0 10000-3 0 4440 2 25867 066.7625 057.3045 8038571 275.2064 355.9604 00.37806354 6097 ____________________________________________________________________ These 2-Line ...Continue Reading

[list_settings.list_name] Current TLEs

April 1st 2010 PST

HST 1 20580U 90037B 10089.98482348 .00000607 00000-0 33695-4 0 5425 2 20580 028.4701 030.3706 0003544 093.0753 267.0268 15.00934738892999 ISS (ZARYA) 1 25544U 98067A 10090.53457137 .00021676 00000-0 15215-3 0 8779 2 25544 051.6444 269.2476 0006504 123.4883 279.1739 15.74096542651245 CXO 1 25867U 99040B 10089.70833333 .00000157 00000-0 10000-3 0 4440 2 25867 066.7625 057.3045 8038571 275.2064 355.9604 00.37806354 6097 ____________________________________________________________________ These 2-Line ...Continue Reading

[list_settings.list_name] Current TLEs

March 31st 2010 PST

HST 1 20580U 90037B 10087.19205679 .00000571 00000-0 30945-4 0 5410 2 20580 028.4698 048.6001 0003280 065.1033 294.9901 15.00932024892575 ISS (ZARYA) 1 25544U 98067A 10089.51828443 .00022595 00000-0 15868-3 0 8705 2 25544 051.6447 274.4666 0006486 122.0322 277.8049 15.74055767651084 CXO 1 25867U 99040B 10089.70833333 .00000157 00000-0 10000-3 0 4440 2 25867 066.7625 057.3045 8038571 275.2064 355.9604 00.37806354 6097 ____________________________________________________________________ These 2-Line ...Continue Reading

[list_settings.list_name] Current TLEs

March 30th 2010 PST

HST 1 20580U 90037B 10087.19205679 .00000571 00000-0 30945-4 0 5410 2 20580 028.4698 048.6001 0003280 065.1033 294.9901 15.00932024892575 ISS (ZARYA) 1 25544U 98067A 10088.13231063 .00023054 00000-0 16223-3 0 8648 2 25544 051.6452 281.5839 0006548 117.7445 343.2026 15.73993389650865 CXO 1 25867U 99040B 10087.08333333 .00000288 00000-0 10000-3 0 4438 2 25867 066.7413 057.4025 8033619 275.2308 358.5227 00.37809712 6080 ____________________________________________________________________ These 2-Line ...Continue Reading

[list_settings.list_name] Current TLEs

March 29th 2010 PST

HST 1 20580U 90037B 10087.19205679 .00000571 00000-0 30945-4 0 5410 2 20580 028.4698 048.6001 0003280 065.1033 294.9901 15.00932024892575 ISS (ZARYA) 1 25544U 98067A 10087.11556872 .00023232 00000-0 16377-3 0 8573 2 25544 051.6444 286.8051 0006655 116.4654 339.4472 15.73946187650706 CXO 1 25867U 99040B 10087.08333333 .00000288 00000-0 10000-3 0 4438 2 25867 066.7413 057.4025 8033619 275.2308 358.5227 00.37809712 6080 ____________________________________________________________________ These 2-Line ...Continue Reading

[list_settings.list_name] Current TLEs

March 28th 2010 PST

HST 1 20580U 90037B 10085.13072512 .00000591 00000-0 32446-4 0 5409 2 20580 028.4693 062.0538 0003273 041.8770 318.2061 15.00930404892269 ISS (ZARYA) 1 25544U 98067A 10086.47808674 .00024353 00000-0 17164-3 0 8537 2 25544 051.6452 290.0789 0006635 113.1952 328.2189 15.73919068650601 CXO 1 25867U 99040B 10087.08333333 .00000288 00000-0 10000-3 0 4438 2 25867 066.7413 057.4025 8033619 275.2308 358.5227 00.37809712 6080 ____________________________________________________________________ These 2-Line ...Continue Reading

[list_settings.list_name] Current TLEs

March 27th 2010 PST

HST 1 20580U 90037B 10085.13072512 .00000591 00000-0 32446-4 0 5409 2 20580 028.4693 062.0538 0003273 041.8770 318.2061 15.00930404892269 ISS (ZARYA) 1 25544U 98067A 10085.14715436 .00058467 00000-0 40508-3 0 8444 2 25544 051.6444 296.9146 0006518 108.6044 346.6874 15.73875653650397 CXO 1 25867U 99040B 10 81.86761205 .00000000 00000-0 10000-3 0 4433 2 25867 066.7177 057.6713 8026685 275.2550 008.4013 00.37816687 6079 ____________________________________________________________________ These 2-Line ...Continue Reading

[list_settings.list_name] Current TLEs

March 26th 2010 PST

HST 1 20580U 90037B 10083.13588562 .00000650 00000-0 37001-4 0 5390 2 20580 028.4695 075.0809 0003141 019.9274 340.1415 15.00929152891966 ISS (ZARYA) 1 25544U 98067A 10 84.17793933 .00051565 00000-0 35582-3 0 8419 2 25544 051.6433 301.8912 0006541 103.2619 256.9637 15.73829104650241 CXO 1 25867U 99040B 10 81.86761205 .00000000 00000-0 10000-3 0 4433 2 25867 066.7177 057.6713 8026685 275.2550 008.4013 00.37816687 6079 ____________________________________________________________________ These 2-Line ...Continue Reading

[list_settings.list_name] Current TLEs

March 25th 2010 PST

HST 1 20580U 90037B 10083.13588562 .00000650 00000-0 37001-4 0 5390 2 20580 028.4695 075.0809 0003141 019.9274 340.1415 15.00929152891966 ISS (ZARYA) 1 25544U 98067A 10083.24449311 .00014827 00000-0 10427-3 0 8336 2 25544 051.6467 306.6771 0007569 083.0542 024.7360 15.74373093650094 CXO 1 25867U 99040B 10081.79166667 .00000185 00000-0 10000-3 0 4418 2 25867 066.7230 057.7195 8020760 275.2298 358.0130 00.37798666 6060 ____________________________________________________________________ These 2-Line ...Continue Reading

[list_settings.list_name] Current TLEs

March 24th 2010 PST

HST 1 20580U 90037B 10080.47609835 .00000682 00000-0 39483-4 0 5381 2 20580 028.4687 092.4399 0003178 350.2776 009.7869 15.00926714891560 ISS (ZARYA) 1 25544U 98067A 10082.17162449 .00017110 00000-0 11975-3 0 8271 2 25544 051.6469 312.1893 0007445 079.7384 063.2896 15.74347849649924 CXO 1 25867U 99040B 10081.79166667 .00000185 00000-0 10000-3 0 4418 2 25867 066.7230 057.7195 8020760 275.2298 358.0130 00.37798666 6060 ____________________________________________________________________ These 2-Line ...Continue Reading
  • This mailing list is a public mailing list - anyone may join or leave, at any time.
  • This mailing list is announce-only.

International Space Station (ISS) / Hubble Space Telescope (HST) / Chandra X-Ray Observatory Orbital Data via EMAIL

Privacy Policy:

Private list